Probability
0 0 0 0 0 0 0 0 0 0 0 0 0 0 0 0 0 0 0 0 1 3 3 5 9 11 12 14 16 16 15 14 14 15 14 11 10 9 8 5 4 3 2 1 0 0 0 0 0
0 0 0 0 0 0 0 0 0 0 0 0 0 0 0 0 0 0 0 1 3 4 3 5 8 10 9 10 12 14 14 13 13 14 14 12 11 10 9 7 5 4 3 1 1 0 0 0 0
0 0 0 0 0 0 0 0 0 0 0 0 0 0 0 0 0 1 2 4 5 5 4 4 7 9 8 7 8 11 13 12 11 12 13 13 11 10 9 8 8 6 4 3 2 1 1 0 0
0 0 0 0 0 0 0 0 0 0 0 0 0 0 0 0 1 3 5 7 7 6 5 5 8 10 9 8 7 9 12 13 11 11 12 12 10 8 8 9 10 9 8 6 4 2 2 1 0
0 0 0 0 0 0 0 0 0 0 0 0 0 0 0 0 1 4 8 9 8 7 6 7 9 11 11 9 7 7 9 11 12 12 13 12 11 10 10 10 10 10 10 8 5 3 3 2 0
0 0 0 0 0 0 0 0 0 0 0 0 0 1 1 1 1 5 8 8 7 7 7 7 8 10 11 9 7 5 6 8 12 14 15 14 13 14 14 13 12 11 11 10 7 5 5 3 1
0 0 0 0 0 0 0 0 0 0 0 0 0 1 2 1 2 5 6 5 4 4 5 4 4 5 6 6 6 5 4 5 8 13 15 15 15 16 17 15 12 11 12 12 9 6 6 5 3
0 0 0 0 0 0 0 0 0 0 0 0 0 1 1 1 2 4 3 2 1 1 1 2 2 2 2 2 3 3 3 4 5 8 11 11 13 14 15 14 12 11 13 13 10 7 6 6 5
0 0 0 0 0 0 0 0 0 0 0 0 0 0 1 1 3 3 3 3 2 1 0 1 2 2 1 1 1 1 2 2 3 5 6 7 8 11 12 12 10 11 12 13 11 9 7 5 3
0 0 0 0 0 0 0 0 0 0 0 0 0 0 1 2 2 3 3 2 2 1 0 1 2 2 2 1 0 0 1 2 3 4 4 3 4 6 9 10 10 10 10 11 11 10 7 3 1
0 0 0 0 0 0 0 0 0 0 0 0 0 0 1 1 1 2 1 1 1 0 0 0 1 1 1 1 1 1 1 2 3 3 2 1 1 3 6 9 9 8 8 8 9 8 5 1 0
0 0 0 0 0 0 0 0 0 0 0 0 0 0 0 0 0 0 0 0 0 0 0 0 0 0 0 1 1 1 1 2 2 2 1 0 0 1 5 7 7 7 7 7 6 5 2 0 0
0 0 0 0 0 0 0 0 0 0 0 0 0 0 0 0 0 0 0 0 0 0 0 0 0 0 0 1 1 0 0 1 1 1 0 0 0 1 4 6 7 7 6 6 5 4 1 0 0
0 0 0 0 0 0 0 0 0 0 0 0 0 0 0 0 0 0 0 0 0 0 0 0 0 0 0 0 0 0 0 0 0 0 0 0 1 2 4 5 7 8 7 6 5 4 2 1 0
0 0 0 0 0 0 0 0 0 0 0 0 0 0 0 0 0 0 0 0 0 0 0 0 0 0 0 0 0 0 0 0 0 0 0 0 1 3 3 4 6 8 9 8 7 6 4 2 1
0 0 0 0 0 0 0 0 0 0 0 0 0 0 0 0 0 0 0 0 0 0 0 0 0 0 0 0 0 0 0 0 0 0 0 0 1 2 3 4 5 8 9 10 9 7 5 2 1
0 0 0 0 0 0 0 0 0 0 0 0 0 0 0 0 0 0 0 0 0 0 0 0 0 0 0 0 0 0 0 0 0 0 0 0 1 2 2 3 3 5 8 10 10 8 4 1 0
0 0 0 0 0 0 0 0 0 0 0 0 0 0 0 0 0 0 0 0 0 0 0 0 0 0 0 0 0 0 0 0 0 0 0 0 0 1 2 2 2 2 4 8 9 6 2 0 0
0 0 0 0 0 0 0 0 0 0 0 0 0 0 0 0 0 0 0 0 0 0 0 0 0 0 0 0 0 0 0 0 0 0 0 0 0 1 1 1 1 0 1 4 7 5 2 0 0
0 0 0 0 0 0 0 0 0 0 0 0 0 0 0 0 0 0 0 0 0 0 0 0 0 0 0 0 0 0 0 0 0 0 0 0 0 0 0 0 0 0 0 2 4 4 1 0 0
0 0 0 0 0 0 0 0 0 0 0 0 0 0 0 0 0 0 0 0 0 0 0 0 0 0 0 0 0 0 0 0 0 0 0 0 0 0 0 0 0 0 0 1 3 3 1 0 0
0 0 0 0 0 0 0 0 0 0 0 0 0 0 0 0 0 0 0 0 0 0 0 0 0 0 0 0 0 0 0 0 0 0 0 0 0 0 0 0 0 0 0 1 2 3 2 1 0
0 0 0 0 0 0 0 0 0 0 0 0 0 0 0 0 0 0 0 0 0 0 0 0 0 0 0 0 0 0 0 0 0 0 0 0 0 0 0 0 0 0 0 0 1 2 2 1 1
0 0 0 0 0 0 0 0 0 0 0 0 0 0 0 0 0 0 0 0 0 0 0 0 0 0 0 0 0 0 0 0 0 0 0 0 0 0 0 0 0 0 0 0 0 1 1 1 0
0 0 0 0 0 0 0 0 0 0 0 0 0 0 0 0 0 0 0 0 0 0 0 0 0 0 0 0 0 0 0 0 0 0 0 0 0 0 0 0 0 0 0 0 0 0 0 0 0
0 0 0 0 0 0 0 0 0 0 0 0 0 0 0 0 0 0 0 0 0 0 0 0 0 0 0 0 0 0 0 0 0 0 0 0 0 0 0 0 0 0 0 0 0 0 0 0 0
0 0 0 0 0 0 0 0 0 0 0 0 0 0 0 0 0 0 0 0 0 0 0 0 0 0 0 0 0 0 0 0 0 0 0 0 0 0 0 0 0 0 0 0 0 0 0 0 0
0 0 0 0 0 0 0 0 0 0 0 0 0 0 0 0 0 0 0 0 0 0 0 0 0 0 0 0 0 0 0 0 0 0 0 0 0 0 0 0 0 0 0 0 0 0 0 0 0
0 0 0 0 0 0 0 0 0 0 0 0 0 0 0 0 0 0 0 0 0 0 0 0 0 0 0 0 0 0 0 0 0 0 0 0 0 0 0 0 0 0 0 0 0 0 0 0 0
0 0 0 0 0 0 0 0 0 0 0 0 0 0 0 0 0 0 0 0 0 0 0 0 0 0 0 0 0 0 0 0 0 0 0 0 0 0 0 0 0 0 0 0 0 0 0 0 0
Wind_Speed
4 3 3 5 7 5 3 4 3 2 2 1 1 3 4 3 3 3 1 3 3 2 2 2 3 4 5 7 7 8 8 7 8 9 9 10 11 11 11 10 10 10 10 10 10 10 11 12 12
1 2 5 6 6 2 4 4 4 4 3 1 2 3 4 2 1 2 2 4 3 2 3 3 4 3 4 4 6 7 7 7 7 8 8 9 10 10 10 10 10 10 10 10 10 10 11 11 12
2 4 5 5 4 6 5 3 4 2 1 1 3 3 3 2 1 1 2 3 3 3 4 4 6 4 3 3 3 4 5 6 7 7 7 8 8 9 10 9 9 9 9 9 10 10 11 11 11
3 5 5 4 3 4 3 2 3 1 1 2 3 3 2 2 2 1 3 3 4 4 4 4 6 5 3 3 2 2 2 4 6 6 7 8 8 8 9 9 8 8 8 9 10 10 11 10 10
4 5 4 1 3 3 2 2 2 2 1 1 3 3 1 3 3 3 3 4 4 4 4 4 7 5 4 3 2 1 1 2 3 5 7 8 8 8 8 8 8 9 9 9 10 11 11 10 10
5 4 4 3 3 2 2 1 1 2 1 1 3 3 0 2 3 3 3 4 3 4 4 4 6 6 6 4 3 2 2 2 2 3 6 7 7 8 8 7 9 10 10 10 10 11 11 11 10
4 4 4 4 3 2 1 0 2 2 2 1 2 3 0 2 2 3 3 4 4 5 4 4 4 4 5 6 4 3 3 2 2 2 3 5 6 7 8 7 8 10 11 10 10 10 11 11 10
4 5 3 2 3 2 1 1 1 2 1 0 2 4 2 2 2 3 3 4 5 5 5 5 5 4 3 3 5 5 3 3 3 2 3 3 5 7 7 7 8 9 10 10 10 10 10 10 9
3 4 2 4 4 2 0 1 2 1 2 2 1 1 2 0 2 4 4 5 5 6 5 5 5 5 4 3 4 4 4 3 3 2 3 3 3 4 5 6 7 8 10 11 11 10 10 9 8
4 3 3 2 2 2 0 1 1 2 2 2 2 2 3 3 4 5 5 5 6 6 6 4 5 5 4 4 3 2 2 2 2 2 2 2 2 3 4 6 7 8 9 10 11 10 9 6 4
3 3 1 1 1 1 1 1 1 3 0 2 3 1 2 3 4 4 4 4 4 5 5 5 5 4 4 3 3 2 1 1 2 2 2 2 2 2 3 2 4 5 7 6 7 7 4 4 4
3 0 1 1 1 1 1 1 1 1 3 1 3 2 1 2 2 2 3 4 5 5 6 6 5 4 4 3 3 2 2 2 1 2 2 2 2 2 3 3 3 3 3 4 4 4 5 5 5
2 0 1 1 2 1 2 1 1 1 2 1 2 2 1 1 2 2 2 3 4 5 6 6 5 5 4 3 3 3 2 2 3 2 2 2 2 3 3 3 3 4 4 5 5 5 6 6 6
2 2 2 3 1 1 1 1 1 3 0 2 2 1 1 1 1 2 3 4 5 5 6 6 6 5 4 3 3 3 3 2 2 2 3 3 3 3 3 4 4 4 5 5 6 6 6 5 5
2 3 4 3 2 1 1 3 2 2 2 2 1 1 1 2 2 2 3 4 5 5 6 6 6 5 5 4 4 3 2 2 2 2 3 3 3 3 3 3 3 4 5 5 5 6 4 4 4
3 4 2 3 2 2 2 3 2 0 3 0 1 1 2 3 2 2 3 4 4 5 6 7 6 6 5 4 3 3 2 2 2 2 2 3 3 3 3 3 3 4 4 5 5 5 5 5 5
4 2 0 3 2 1 1 5 3 1 1 2 2 2 2 3 3 3 3 4 4 5 6 6 6 5 5 5 4 3 2 2 2 2 2 2 3 3 3 3 3 3 4 4 5 5 5 5 5
1 1 0 2 2 1 2 6 6 2 2 3 2 2 2 3 4 4 3 4 4 5 6 6 6 5 5 4 3 3 2 2 2 2 3 3 3 3 3 3 3 3 3 4 5 5 5 5 4
3 2 1 3 2 1 3 7 7 3 2 2 3 3 3 3 4 3 3 4 5 5 6 6 6 6 5 3 3 3 3 3 2 2 3 3 3 3 3 2 2 2 3 5 6 4 5 5 3
2 2 1 3 2 1 3 7 6 3 3 4 4 4 4 3 4 4 4 4 5 5 6 6 6 6 5 3 3 3 3 2 3 3 3 3 3 3 3 3 3 3 3 4 5 4 4 3 4
1 2 2 1 3 2 3 6 3 2 1 2 2 3 3 4 4 4 5 5 5 6 7 7 7 6 6 5 3 3 2 2 2 3 2 2 3 3 3 3 3 3 4 4 5 5 5 4 4
1 1 2 1 2 3 2 4 6 3 3 3 4 3 4 4 3 3 4 5 6 6 6 6 6 6 6 5 3 3 2 3 3 3 2 3 3 3 3 3 3 4 3 3 4 4 4 5 5
2 1 1 1 1 2 0 2 8 2 4 5 5 4 4 4 3 4 4 4 5 5 6 6 6 6 5 4 3 3 3 3 3 2 3 3 2 2 3 3 2 3 3 3 3 4 4 4 5
1 3 3 3 3 2 2 3 8 4 6 4 4 4 4 3 3 3 3 3 4 5 5 6 6 7 6 4 4 3 3 3 3 3 3 3 2 2 3 3 2 2 2 3 4 4 5 5 5
3 4 4 4 3 4 1 3 10 6 5 4 5 4 4 3 2 3 3 4 4 5 6 6 6 7 6 6 4 4 4 3 4 4 3 3 3 2 3 2 1 2 2 3 3 4 5 5 5
1 3 4 2 3 5 2 7 9 4 3 3 3 3 3 2 2 3 3 3 4 5 5 6 6 7 7 6 6 5 4 3 3 3 3 3 3 3 2 2 2 2 2 2 2 3 4 4 5
2 2 2 4 0 3 6 7 9 2 2 1 2 2 3 3 3 3 3 3 4 5 5 5 6 6 6 6 5 5 4 4 4 4 3 3 3 2 2 2 2 2 2 2 2 2 2 3 3
2 4 3 3 1 4 6 5 6 4 4 3 3 3 4 3 3 3 3 3 3 4 4 5 5 5 5 5 5 4 4 4 4 3 3 3 3 2 2 2 2 2 2 1 2 2 1 2 2
3 2 3 2 2 3 4 8 6 6 5 5 5 5 4 4 3 3 3 3 3 3 4 4 5 5 5 5 5 5 5 4 4 3 3 2 2 2 1 2 2 2 2 1 2 2 2 2 2
3 4 5 3 3 3 3 10 4 4 5 4 5 5 4 4 3 3 3 3 3 3 4 4 5 5 5 5 5 5 5 4 4 4 3 3 2 2 1 1 1 1 1 1 2 2 2 2 2
Wind_Direction
6 29 61 57 61 62 213 231 217 225 231 239 174 132 132 129 148 158 274 350 350 352 2 46 81 103 135 151 147 147 147 147 148 146 144 147 148 148 148 148 148 146 143 140 136 132 129 126 123
22 49 56 63 97 148 246 228 213 213 202 137 67 85 83 72 45 70 351 337 355 14 24 49 61 83 107 134 155 157 155 158 161 159 155 155 157 157 156 154 153 151 149 145 140 137 135 132 130
73 55 83 85 133 182 210 213 213 253 265 91 71 60 94 80 22 22 327 331 19 28 21 36 51 55 77 102 131 162 166 167 170 172 168 167 166 165 164 160 157 154 153 149 145 143 141 138 137
76 54 60 89 191 213 211 222 195 163 39 51 97 65 39 9 342 335 342 11 36 25 21 27 41 48 50 61 85 135 175 185 184 186 184 180 177 174 173 168 162 159 158 156 153 151 147 145 144
59 82 84 111 219 240 246 256 180 129 89 49 97 98 19 352 0 20 22 31 37 16 15 25 30 31 35 35 31 5 225 208 205 202 199 193 190 184 180 175 169 167 165 166 162 161 157 154 151
63 75 111 192 221 252 267 254 140 103 88 67 93 99 157 355 21 9 24 31 31 24 12 16 20 22 18 12 7 348 312 260 231 218 210 205 197 194 189 184 178 175 174 173 170 168 166 164 158
108 107 153 177 188 233 247 49 132 130 102 134 130 109 183 333 1 15 26 34 30 24 19 9 4 5 5 1 349 333 329 305 269 247 223 217 207 199 195 189 190 186 182 180 177 174 172 171 165
120 107 121 174 174 215 270 55 83 132 157 36 104 132 199 258 343 21 29 33 27 22 17 5 355 354 349 339 340 334 319 310 291 271 253 229 217 207 201 193 198 196 190 185 183 181 178 174 168
91 86 170 194 183 205 286 82 18 43 90 39 46 148 195 85 22 30 25 16 11 6 2 358 351 345 337 328 335 333 319 305 288 273 257 235 218 209 205 199 200 201 196 190 187 186 183 176 170
88 140 204 210 191 175 89 99 83 66 47 43 32 19 34 37 38 37 22 3 356 347 343 351 345 337 333 329 333 321 309 296 274 261 252 235 214 212 209 203 200 205 200 196 194 191 185 172 164
99 162 192 319 313 124 90 56 47 116 155 207 183 176 26 43 34 30 11 350 336 329 335 339 335 330 328 323 321 318 305 289 268 253 249 245 222 213 210 199 201 205 200 196 197 191 185 173 168
108 111 136 304 4 60 115 106 48 129 212 204 166 151 97 53 21 6 348 335 331 336 331 332 332 328 320 314 309 303 301 290 278 258 240 232 227 218 210 205 198 198 196 192 190 186 184 179 177
99 95 345 347 35 64 79 79 121 280 263 74 100 94 100 62 354 339 332 333 336 336 331 328 328 324 320 316 305 310 297 286 273 262 250 233 224 225 220 215 206 201 195 191 190 189 188 187 183
118 79 2 348 7 20 95 334 92 268 49 93 92 67 36 10 352 350 346 343 338 332 325 323 324 322 321 313 301 294 286 282 277 266 255 241 230 218 215 218 213 209 201 195 192 194 194 194 190
92 64 20 7 359 341 53 338 239 246 101 93 71 26 2 343 351 345 329 330 330 325 323 325 324 329 325 314 299 297 288 286 281 275 264 250 236 220 213 215 217 215 205 197 191 193 191 195 196
64 63 32 335 358 350 91 273 280 101 112 174 299 331 333 327 334 329 329 329 330 329 328 326 329 329 326 319 306 297 290 285 281 281 276 268 247 224 212 214 221 220 205 195 193 192 195 201 202
48 84 28 314 342 14 117 254 278 355 139 245 273 290 307 320 327 324 327 323 327 327 325 325 325 326 324 319 309 299 289 273 274 283 276 275 266 237 210 214 220 214 206 200 198 194 195 201 206
147 128 230 272 312 9 249 261 280 284 213 235 261 279 291 299 299 308 321 325 328 328 328 325 327 329 326 320 316 310 300 290 284 274 270 267 258 245 221 214 216 210 209 202 201 196 195 196 199
137 133 255 273 291 328 261 271 282 277 218 238 255 264 273 281 291 306 320 331 336 335 335 329 331 332 334 332 326 319 310 303 294 270 265 262 258 241 222 221 205 205 218 212 200 197 199 200 181
106 105 297 301 330 309 293 284 279 244 213 214 225 242 255 282 311 321 328 337 340 336 331 327 330 329 328 322 307 293 297 291 281 277 271 262 263 253 230 216 215 211 217 221 204 192 199 202 185
28 174 208 265 345 6 342 311 291 275 247 250 241 241 253 257 280 307 322 326 333 334 330 328 327 326 327 326 318 317 319 308 302 296 286 281 275 265 244 223 218 220 213 216 210 200 199 203 203
273 235 190 140 37 320 37 300 284 273 284 264 261 259 262 270 277 291 308 319 325 323 326 327 328 332 333 334 326 317 311 298 291 297 296 304 289 274 255 240 228 219 209 210 217 212 202 198 205
208 53 105 106 114 324 336 228 281 296 266 259 259 260 265 268 267 277 290 299 315 325 331 332 334 337 338 339 332 315 307 297 302 311 307 302 294 284 277 257 236 222 212 208 211 212 205 205 205
122 61 61 53 64 298 229 194 275 240 227 248 256 264 269 269 273 284 298 312 322 331 336 338 340 340 343 343 339 321 308 310 316 318 310 306 302 292 284 266 237 233 223 214 213 209 210 212 210
66 78 34 4 359 263 224 220 253 250 235 229 244 262 272 266 271 289 306 318 324 329 333 340 341 338 342 346 341 330 311 304 297 295 296 298 300 296 282 264 248 240 235 228 220 211 215 215 214
84 118 141 200 246 289 292 242 256 259 264 251 243 249 267 269 269 276 286 301 312 319 328 336 336 332 339 344 342 336 322 310 298 293 285 281 275 272 282 265 257 249 237 240 233 221 217 216 215
120 125 146 133 207 284 274 279 295 246 277 264 250 257 270 268 267 276 299 311 313 317 320 323 326 328 335 340 338 337 330 314 299 290 286 282 279 273 282 276 259 253 237 223 219 224 215 215 218
131 141 104 125 181 279 289 275 262 267 257 260 256 254 262 271 281 288 297 304 307 309 314 321 321 322 324 331 333 332 324 320 315 311 293 288 285 280 288 284 265 257 245 225 214 221 202 210 225
132 129 128 133 172 197 279 273 233 231 231 233 246 251 258 267 268 274 289 299 303 316 325 328 328 330 332 332 329 328 324 325 325 325 319 302 298 300 296 287 277 261 242 223 217 229 207 210 223
189 183 157 168 227 203 233 270 273 239 240 234 253 263 263 259 259 262 276 296 306 314 324 329 327 330 328 328 327 323 323 331 338 336 327 323 323 320 305 295 291 271 269 241 221 229 225 218 224